[[{"header":{"parameterUnit":"m.s-1","parameterCategory":1,"la1":30.2991,"la2":30.254,"lo1":-89.0895,"lo2":-89.0444,"dy":0.0017,"dx":0.0017,"nx":28,"ny":28,"refTime":"2025-05-18T21:00:00:Z","depth":0,"parameterNumber":2,"parameterNumberName":"U-component_of_WINDS"},"data":[0,0,0,0,0,0,0,0,0,0,0,0,0,0,0,0,0,0,0,0,0,0,0,0,0,0,0,0,0,0,0,0,0,0,0,0,0,0,0,0,0,0,0,0,0,0,0,0,0,0,0,0,0,0,0,0,0,0,0.184,0.184,0,0.1755,0.1754,0.1753,0.1704,0.1704,0.1704,0.1704,0.1615,0.1613,0.1611,0,0,0,0,0,0,0,0,0,0,0,0,0,0.1958,0.1956,0.1841,0.184,0.1838,0.1755,0.1754,0.1753,0.1704,0.1704,0.1704,0.1704,0.1616,0.1613,0.1611,0,0,0,0,0,0,0,0,0,0,0,0,0,0.1893,0.1956,0.1841,0.1804,0.18,0.1756,0.1754,0.1753,0.1704,0.1704,0.1704,0.1704,0.1617,0.1614,0.161,0.1596,0,0,0.16,0.1599,0,0,0,0,0,0,0,0,0.1897,0.1889,0.1811,0.1807,0.1802,0.174,0.1763,0.17,0.1704,0.1741,0.1704,0.1703,0.1657,0.165,0.1635,0.1592,0.1588,0.16,0.1598,0.1597,0.1596,0,0,0,0,0,0,0,0.1902,0.1892,0.1807,0.1809,0.1804,0.1791,0.1781,0.1751,0.1701,0.1737,0.1734,0.1724,0.1655,0.1638,0.1633,0.1586,0.16,0.1597,0.1595,0.1594,0.1524,0.1524,0,0,0,0,0,0,0.1912,0.1897,0.1809,0.1804,0.185,0.1789,0.1778,0.176,0.1702,0.1692,0.1725,0.1722,0.1644,0.1636,0.1629,0.1607,0.1597,0.1594,0.1592,0.1524,0.1524,0.1524,0,0,0,0,0,0,0.1915,0.1905,0.1813,0.1849,0.1837,0.1787,0.1767,0.1759,0.1742,0.1692,0.1683,0.1717,0.1643,0.1634,0.1604,0.1603,0.1592,0.1589,0.1524,0.1524,0.1524,0.1562,0,0,0,0,0,0,0.1919,0.1906,0.1901,0.185,0.1835,0.179,0.1767,0.1757,0.1737,0.1733,0.1683,0.1674,0.1643,0.1609,0.1601,0.1598,0.1587,0.1524,0.1524,0.1524,0.1561,0.1564,0.1566,0,0,0,0,0,0.1923,0.1915,0.1901,0.1891,0.1827,0.179,0.1782,0.1746,0.1737,0.1731,0.1698,0.1675,0.1605,0.1606,0.1597,0.1593,0.1524,0.1524,0.1524,0.156,0.1563,0.1566,0,0,0,0,0,0,0.1968,0.1908,0.1891,0.1867,0.1834,0.1782,0.1773,0.1751,0.172,0.1717,0.1674,0.1663,0.1637,0.1612,0.1615,0.1575,0.1561,0.156,0.1592,0.1595,0.1597,0.1604,0.1584,0,0,0,0,0,0.1975,0.195,0.1899,0.1882,0.1867,0.1823,0.1805,0.1781,0.1744,0.173,0.1695,0.1661,0.163,0.1611,0.1581,0.1557,0.1544,0.155,0.1552,0.1555,0.1554,0.1538,0.1539,0.1525,0.1525,0.1525,0,0,0.1989,0.1953,0.1941,0.189,0.1862,0.1836,0.1811,0.1786,0.1766,0.1726,0.1695,0.1669,0.1627,0.16,0.1586,0.1578,0.1554,0.1555,0.1557,0.1555,0.1538,0.1539,0.154,0.1525,0.1525,0.1525,0,0,0.2002,0.1973,0.1955,0.1927,0.1884,0.1855,0.185,0.1801,0.1782,0.175,0.1719,0.1695,0.1644,0.1615,0.1593,0.1593,0.1571,0.1585,0.1598,0.1583,0.1584,0.1585,0.1584,0.1584,0.1584,0.1584,0.1584,0,0.2025,0.1986,0.1949,0.1924,0.1903,0.1865,0.1846,0.182,0.1769,0.1755,0.1746,0.168,0.165,0.1615,0.1614,0.1599,0.1591,0.159,0.1587,0.1587,0.1588,0.1586,0.1586,0.1586,0.1585,0.1585,0.1585,0,0.2015,0.1989,0.1979,0.1931,0.1908,0.1887,0.1845,0.1826,0.1803,0.1774,0.1742,0.1703,0.1664,0.1654,0.1631,0.1614,0.1611,0.1596,0.1581,0.1591,0.1589,0.1588,0.1588,0.1588,0.1587,0.1587,0,0,0.2055,0.1985,0.1982,0.1959,0.1909,0.1887,0.1863,0.1824,0.1808,0.1774,0.1752,0.1709,0.1694,0.167,0.1643,0.163,0.1631,0.1616,0.1614,0.1619,0.1608,0.162,0.162,0.1615,0.1615,0.1615,0.1611,0,0.2059,0.2015,0.198,0.1949,0.1923,0.1886,0.1865,0.1831,0.1803,0.1776,0.1744,0.1714,0.1697,0.1682,0.1668,0.1634,0.1628,0.1634,0.1593,0.1592,0.1605,0.1618,0.1631,0.1629,0.161,0.161,0.161,0,0.2059,0.2026,0.1992,0.1943,0.193,0.1912,0.1873,0.1848,0.1808,0.1788,0.1761,0.1733,0.1705,0.1693,0.1653,0.1658,0.1639,0.162,0.1619,0.1613,0.1602,0.1612,0.1628,0.1628,0.1608,0.1609,0.1609,0,0.2089,0.2037,0.2009,0.1991,0.1933,0.192,0.1895,0.1855,0.1834,0.1799,0.1784,0.1747,0.1726,0.1697,0.1659,0.1655,0.1622,0.1608,0.1604,0.1605,0.1599,0.16,0.1611,0.1588,0.1588,0.1588,0.1588,0,0.2098,0.2078,0.2022,0.2005,0.1981,0.194,0.1918,0.189,0.1854,0.183,0.1796,0.1774,0.1726,0.1697,0.1668,0.1638,0.1629,0.1612,0.1604,0.1614,0.1616,0.1601,0.16,0.1588,0.1588,0.1588,0.1588,0,0.2128,0.2089,0.2057,0.2004,0.199,0.1975,0.193,0.1911,0.1881,0.1851,0.1841,0.1793,0.1758,0.1718,0.167,0.1649,0.1621,0.1611,0.1635,0.163,0.1628,0.1629,0.1629,0.1627,0.1607,0.1607,0.1608,0,0.2135,0.2119,0.2065,0.2047,0.2023,0.1994,0.1971,0.193,0.1908,0.186,0.1847,0.1809,0.1777,0.1722,0.1682,0.1645,0.1632,0.1635,0.1626,0.1637,0.1631,0.1632,0.1629,0.1637,0.1638,0.1638,0.1638,0,0.2152,0.2134,0.2103,0.2066,0.204,0.2008,0.1975,0.1962,0.1913,0.189,0.1853,0.1828,0.1778,0.1741,0.1698,0.1671,0.1646,0.1641,0.1638,0.1648,0.1663,0.1654,0.1641,0.1641,0.1641,0.1641,0.1641,0.1641,0.217,0.2154,0.2113,0.2079,0.205,0.2019,0.1999,0.1966,0.1935,0.1892,0.1869,0.1832,0.1791,0.1731,0.1705,0.1675,0.1667,0.1662,0.1661,0.1661,0.1663,0.1668,0.1667,0.1667,0.1667,0.1667,0.1666,0,0.2185,0.2156,0.2126,0.208,0.2054,0.2033,0.1995,0.1973,0.1942,0.1906,0.1874,0.1832,0.1795,0.1752,0.1712,0.1696,0.1684,0.1687,0.1688,0.1681,0.1673,0.1679,0.1698,0.1698,0.1698,0.1698,0.1698,0.1698,0.2189,0.216,0.2136,0.2091,0.2062,0.2027,0.2007,0.1978,0.1948,0.1902,0.1872,0.1844,0.1804,0.1761,0.1726,0.1714,0.17,0.1707,0.1692,0.1685,0.1682,0.168,0.1685,0.1705,0.1705,0.1702,0.1702,0.1702]},{"header":{"parameterUnit":"m.s-1","parameterCategory":1,"la1":30.2991,"la2":30.254,"lo1":-89.0895,"lo2":-89.0444,"dy":0.0017,"dx":0.0017,"nx":28,"ny":28,"refTime":"2025-05-18T21:00:00:Z","depth":0,"parameterNumber":3,"parameterNumberName":"V-component_of_WINDS"},"data":[0,0,0,0,0,0,0,0,0,0,0,0,0,0,0,0,0,0,0,0,0,0,0,0,0,0,0,0,0,0,0,0,0,0,0,0,0,0,0,0,0,0,0,0,0,0,0,0,0,0,0,0,0,0,0,0,0,0,6.1375,6.1376,0,6.1491,6.1492,6.1494,6.1463,6.1461,6.1458,6.1456,6.1569,6.1574,6.1579,0,0,0,0,0,0,0,0,0,0,0,0,0,6.112,6.1125,6.1375,6.1377,6.1378,6.1491,6.1493,6.1494,6.1463,6.1461,6.1458,6.1455,6.1567,6.1573,6.1579,0,0,0,0,0,0,0,0,0,0,0,0,0,6.1233,6.1127,6.1375,6.1377,6.1378,6.1491,6.1493,6.1495,6.1464,6.1461,6.1457,6.1454,6.1565,6.1572,6.158,6.1696,0,0,6.1603,6.1607,0,0,0,0,0,0,0,0,6.1227,6.1242,6.1375,6.1377,6.1378,6.1459,6.1444,6.1562,6.1465,6.1431,6.1456,6.1452,6.1535,6.1545,6.1574,6.1701,6.1706,6.1604,6.1609,6.1612,6.1614,0,0,0,0,0,0,0,6.1219,6.1237,6.1421,6.1377,6.1379,6.1369,6.1381,6.1466,6.15,6.1434,6.1432,6.1446,6.1535,6.1566,6.1576,6.1708,6.1604,6.1611,6.1616,6.1619,6.1936,6.194,0,0,0,0,0,0,6.1211,6.1231,6.1417,6.1424,6.1293,6.1377,6.139,6.1437,6.15,6.1506,6.1449,6.1445,6.1555,6.1567,6.158,6.172,6.1612,6.1619,6.1624,6.1932,6.1937,6.1941,0,0,0,0,0,0,6.1205,6.1228,6.1412,6.1327,6.135,6.1385,6.1437,6.1441,6.1472,6.1511,6.1517,6.1476,6.1553,6.1569,6.1668,6.1723,6.1623,6.163,6.1928,6.1934,6.1939,6.2001,0,0,0,0,0,0,6.1198,6.1226,6.1272,6.1329,6.1355,6.1501,6.144,6.1445,6.1486,6.1481,6.1537,6.1543,6.1551,6.1657,6.1676,6.1732,6.1636,6.1923,6.193,6.1937,6.1994,6.2008,6.202,0,0,0,0,0,6.1189,6.1284,6.1275,6.1297,6.1414,6.1504,6.1519,6.1528,6.1491,6.1537,6.1562,6.1541,6.1714,6.1667,6.1688,6.1748,6.1919,6.1928,6.1937,6.1988,6.2006,6.202,0,0,0,0,0,0,6.123,6.1291,6.1282,6.1398,6.1446,6.1499,6.1557,6.1546,6.1604,6.1597,6.1603,6.1616,6.1717,6.1742,6.1688,6.1863,6.1811,6.1824,6.1843,6.186,6.1873,6.1864,6.1642,0,0,0,0,0,6.1253,6.1324,6.1372,6.147,6.1495,6.1522,6.1561,6.1564,6.1614,6.1634,6.1666,6.1713,6.1778,6.182,6.1882,6.1998,6.2009,6.2049,6.2062,6.2072,6.2084,6.2146,6.2164,6.1969,6.1969,6.1969,0,0,6.1301,6.1343,6.1386,6.1479,6.1517,6.1588,6.1539,6.1616,6.1668,6.1644,6.1741,6.1766,6.1818,6.1926,6.1975,6.195,6.214,6.2083,6.2092,6.2097,6.2157,6.2175,6.2192,6.1975,6.1974,6.1973,0,0,6.1424,6.1463,6.1549,6.1588,6.1647,6.1664,6.1685,6.1739,6.1756,6.1853,6.1836,6.1897,6.2009,6.2047,6.2081,6.2218,6.2202,6.2238,6.2306,6.2367,6.2382,6.2396,6.2444,6.2461,6.2249,6.2249,6.2249,0,6.1475,6.1583,6.1593,6.1673,6.1713,6.1697,6.1783,6.1819,6.1895,6.1922,6.1893,6.2034,6.2068,6.2184,6.2218,6.2246,6.2268,6.2232,6.2379,6.2393,6.2406,6.2452,6.247,6.2253,6.2253,6.2252,6.2252,0,6.1642,6.1718,6.1779,6.1855,6.1902,6.1984,6.2005,6.2051,6.205,6.2069,6.2167,6.2208,6.2278,6.2306,6.2304,6.2422,6.2404,6.2378,6.2325,6.2428,6.2472,6.249,6.2259,6.2258,6.2256,6.2255,0,0,6.1795,6.1875,6.1898,6.1932,6.1995,6.2052,6.2133,6.2203,6.2242,6.2294,6.2361,6.2456,6.2432,6.247,6.2473,6.2526,6.2632,6.2493,6.2494,6.2517,6.2763,6.2783,6.2803,6.2621,6.2625,6.2628,6.2758,0,6.1923,6.2067,6.2078,6.2207,6.2276,6.2262,6.2331,6.2377,6.2397,6.2457,6.2478,6.2545,6.2509,6.2532,6.2584,6.2608,6.2681,6.2599,6.2682,6.2684,6.2669,6.2826,6.2847,6.2969,6.2776,6.2778,6.2781,0,6.2092,6.2151,6.2288,6.2342,6.2371,6.2434,6.2499,6.2557,6.2607,6.2618,6.2662,6.2657,6.2737,6.2683,6.2793,6.2736,6.2771,6.2788,6.2792,6.28,6.2739,6.2838,6.3008,6.3026,6.2807,6.2805,6.2803,0,6.2189,6.2303,6.2399,6.2429,6.2494,6.2538,6.2567,6.2615,6.2656,6.2712,6.2739,6.2803,6.2837,6.2886,6.2898,6.2857,6.3007,6.2954,6.3017,6.3017,6.3049,6.3047,6.3227,6.3072,6.3072,6.3071,6.3071,0,6.2331,6.2415,6.2444,6.2503,6.2596,6.2607,6.2698,6.2724,6.2766,6.2828,6.2819,6.2877,6.2889,6.295,6.2959,6.3048,6.3064,6.3074,6.3075,6.3075,6.3073,6.3097,6.3089,6.3076,6.3075,6.3074,6.3073,0,6.2455,6.2478,6.2582,6.2636,6.2651,6.2717,6.2762,6.2818,6.2837,6.2916,6.2935,6.2965,6.3035,6.3052,6.3135,6.3141,6.3247,6.324,6.3231,6.323,6.3293,6.3286,6.3494,6.3521,6.3348,6.335,6.3351,0,6.2544,6.2609,6.267,6.2712,6.2744,6.2812,6.2854,6.2867,6.2911,6.2974,6.3022,6.3092,6.3148,6.3261,6.3288,6.3352,6.3346,6.3414,6.3355,6.3353,6.3347,6.3343,6.3349,6.3425,6.3427,6.3429,6.343,0,6.27,6.2708,6.2771,6.2839,6.2891,6.2944,6.2994,6.3029,6.3048,6.3098,6.3171,6.3215,6.3301,6.337,6.3434,6.3461,6.3448,6.3449,6.3467,6.3467,6.3458,6.3463,6.3261,6.3444,6.3442,6.3441,6.3441,6.344,6.2809,6.2866,6.2918,6.2988,6.3028,6.3076,6.3131,6.3158,6.322,6.3292,6.3295,6.3374,6.3422,6.3507,6.3537,6.3598,6.3577,6.3603,6.361,6.3616,6.3621,6.3449,6.361,6.3609,6.3609,6.3609,6.3608,0,6.2964,6.2997,6.3062,6.3134,6.3189,6.3175,6.323,6.3276,6.3347,6.3393,6.345,6.3533,6.36,6.3633,6.3698,6.374,6.3736,6.3757,6.3754,6.376,6.3637,6.3615,6.3759,6.3759,6.3759,6.3759,6.3759,6.3759,6.3051,6.3146,6.3161,6.3275,6.3306,6.3386,6.3418,6.3461,6.3499,6.3593,6.3649,6.3671,6.3712,6.378,6.384,6.3848,6.3872,6.3896,6.39,6.3784,6.3769,6.3754,6.3734,6.3901,6.3901,6.4019,6.402,6.4021]}]]